GORIZONT 32

Satellite information

Favourite Embed

Satellite Type and Status

PAYLOADIN ORBIT

Key statistics

Satellite GORIZONT 32 at a glance.

Uptime

10573

Days in orbit

Revolutions

≈ 1.0

Per day

Orbit

OTHER

Other

Inclination

14.4

Latest

Satellite identification and parameters

Extended collection of information and parameters for GORIZONT 32.

Object identification

Identified? True

Debris? False

Object name: GORIZONT 32

International designator: 1996-034A

Object number (NORAD): 23880

Object ID (CCSDS): 23880

Country: COMMONWEALTH OF INDEPENDENT STATES (CIS)

Current information (Y/N): Y

RCS size: LARGE

Orbital parameters

Period: 1437.899 minutes

Inclination: 14.4119 deg

SMA: 42200.005 km

Apoapsis: 35853.942 km

Periapsis: 35789.798 km

RAAN: 358.0524 deg

Eccentricy: 0.00076

Argument of periapsis: 356.6867 deg

Mean anomaly: 306.9866 deg

Mean motion: 1.00146092 rev/day

Mean motion (dot): -0.00000199 rev/day2

B* drag term: 0.0 1/REarth

Two-line elements (TLE)

Creation date: May 6, 2025, 3:54 a.m.

Reference frame: TEME

Reference center: EARTH

Epoch: May 5, 2025, 11:10 a.m. UTC

TLE line 0: 0 GORIZONT 32

TLE line 1: 1 23880U 96034A 25125.46536883 -.00000199 00000-0 00000-0 0 9991

TLE line 2: 2 23880 14.4119 358.0524 0007600 356.6867 306.9866 1.00146092105944

Live tracking on map

Real-time ground track for satellite GORIZONT 32.

In-orbit conjunctions

A list of the most updated potential collisions computed for object GORIZONT 32.

Target Orbit TCA Probability of collision Miss distance Type
GOES 1 (SMS-C) OTHER 2025-04-14 17:13:39 TBA 1385.0 (m) PAYLOAD
GORIZONT 30 OTHER 2024-08-03 09:02:14 TBA 4208.0 (m) PAYLOAD

Associated space launch

Geostationary communications satellite

GORIZONT 32 was lifted into orbit during the mission ‘Proton | Gorizont 32’, on board a Proton space rocket.

The launch took place on May 25, 1996, 2:05 a.m. from 200/39 (200L).

For more information about the launch, click the button.

Launch to space Proton | Gorizont 32
Proton | Gorizont 32

Agency: N/A

Status: Launch Successful

Launch date: May 25, 1996, 2:05 a.m. UTC

Rocket: Proton

Launch pad: 200/39 (200L)

Location: Baikonur Cosmodrome, Republic of Kazakhstan

...

Latest news about this satellite

There are no fresh news available about this satellite. Check back as we update our databases every day.


Newsletter sign-up

Weekly statistics, charts and insights to help you stay on top of the space industry.